Tracking 19170 objects as of 23-May-2018
HD Live streaming from Space Station
objects crossing your sky now

OPS 7323 (DMSP 5B F3)

Track OPS 7323 (DMSP 5B F3) now!
10-day predictions
OPS 7323 (DMSP 5B F3) is classified as:


NORAD ID: 6275
Int'l Code: 1972-089A
Perigee: 780.8 km
Apogee: 831.8 km
Inclination: 98.5 °
Period: 100.9 minutes
Semi major axis: 7177 km
RCS: 1.5352 m2 (large)
Launch date: November 9, 1972
Source: United States (US)
Launch site: AIR FORCE WESTERN TEST RANGE (AFWTR)
aabbcc
Your satellite tracking list
Your tracking list is empty




NASA's NSSDC Master Catalog

Two Line Element Set (TLE):
1  6275U 72089A   18142.59835326 +.00000030 +00000-0 +29415-4 0  9991
2  6275 098.5285 352.5150 0035585 351.4818 008.5755 14.27779127364129
Source of the keplerian elements: AFSPC